• Join FlightAware (Why Join?)
  • Login
  • US Flag 
07:08PM EST


 

Airport Tracker/Info


-or-


 

Live Flight TrackerFlight Track Log ✈ ASQ5685 ✈ 14-Jun-2013 ✈ KATL - KIAD

Flight Track Log - Related Links

Times and Time Zones

All times are in EDT time to prevent confusion due to time zone crossing. See the ASQ5685 flight status page for this flight to view local times or setup timezone preferences in your user account.

Time Position Orientation Groundspeed Altitude Reporting Facility
EDT Latitude Longitude Course Direction KTS MPH feet Rate Location/Type
09:39AM 33.6306 -84.4828 53° Northeast 413 475 2,300  Level Atlanta Center
09:40AM 33.6167 -84.5000 226° Southwest 208 239 2,700 1,400 Climbing Atlanta TRACON
09:40AM 33.5992 -84.5600 251° West 302 348 3,700 2,198 Climbing Atlanta Center
09:41AM 33.5281 -84.5894 199° South 269 310 6,400 2,350 Climbing Atlanta Center
09:42AM 33.7594 -83.9622 54° Northeast  Level FlightAware Approximate
09:42AM 33.4592 -84.5467 153° Southeast 301 346 8,400  Level Atlanta Center
09:43AM 33.8184 -83.8640 54° Northeast  Level FlightAware Approximate
09:43AM 33.4575 -84.4472 91° East 305 351 10,300  Level Atlanta Center
09:44AM 33.8788 -83.7671 48° Northeast  Level FlightAware Approximate
09:44AM 33.4558 -84.3375 91° East 310 357 11,000  Level Atlanta Center
09:45AM 33.9433 -83.6740 53° Northeast  Level FlightAware Approximate
09:45AM 33.5039 -84.2481 57° Northeast 320 368 12,000  Level Atlanta Center
09:46AM 33.5875 -84.1908 30° Northeast 320 368 13,800 1,550 Climbing Atlanta Center
09:47AM 33.6753 -84.1336 28° Northeast 343 395 15,100 1,250 Climbing Atlanta Center
09:48AM 33.7483 -84.0614 39° Northeast 349 402 16,300 1,100 Climbing Atlanta Center
09:49AM 33.8025 -83.9564 58° Northeast 352 405 17,300 950 Climbing Atlanta Center
09:50AM 33.8589 -83.8511 57° Northeast 370 426 18,200 850 Climbing Atlanta Center
09:51AM 33.9067 -83.7561 59° Northeast 370 426 19,000 800 Climbing Atlanta Center
09:52AM 33.9689 -83.6506 55° Northeast 378 435 19,800 800 Climbing Atlanta Center
09:53AM 34.0333 -83.5500 52° Northeast 378 435 20,600 800 Climbing Atlanta Center
09:54AM 34.0997 -83.4442 53° Northeast 383 441 21,400 750 Climbing Atlanta Center
09:55AM 34.1639 -83.3383 54° Northeast 388 447 22,100 800 Climbing Atlanta Center
09:56AM 34.2300 -83.2322 53° Northeast 388 447 23,000 750 Climbing Atlanta Center
09:57AM 34.2981 -83.1261 52° Northeast 388 447 23,600 600 Climbing Atlanta Center
09:58AM 34.3619 -83.0122 56° Northeast 400 460 24,200 650 Climbing Atlanta Center
09:59AM 34.4400 -82.8903 52° Northeast 410 472 24,900 650 Climbing Atlanta Center
10:00AM 34.5142 -82.7808 51° Northeast 415 478 25,500 600 Climbing Atlanta Center
10:01AM 34.5839 -82.6664 53° Northeast 415 478 26,100 800 Climbing Atlanta Center
10:02AM 34.6453 -82.5667 53° Northeast 415 478 27,100 750 Climbing Atlanta Center
10:03AM 34.7128 -82.4569 53° Northeast 415 478 27,600 500 Climbing Atlanta Center
10:04AM 34.7822 -82.3419 54° Northeast 415 478 28,100 500 Climbing Atlanta Center
10:05AM 34.8514 -82.2264 54° Northeast 415 478 28,600 500 Climbing Atlanta Center
10:06AM 34.9208 -82.1186 52° Northeast 415 478 29,100 500 Climbing Atlanta Center
10:07AM 34.9878 -82.0056 54° Northeast 409 471 29,600 500 Climbing Atlanta Center
10:08AM 35.0569 -81.8897 54° Northeast 414 476 30,100 500 Climbing Atlanta Center
10:09AM 35.1253 -81.7583 58° Northeast 409 471 30,600 450 Climbing Atlanta Center
10:10AM 35.1878 -81.6422 57° Northeast 420 483 31,000 200 Climbing Atlanta Center
10:11AM 35.2500 -81.5208 58° Northeast 420 483 31,000  Level Atlanta Center
10:12AM 35.3144 -81.3994 57° Northeast 420 483 31,000  Level Atlanta Center
10:13AM 35.3764 -81.2803 57° Northeast 420 483 31,000  Level Atlanta Center
10:14AM 35.4383 -81.1583 58° Northeast 420 483 31,000  Level Atlanta Center
10:15AM 35.5019 -81.0311 58° Northeast 420 483 31,000  Level Atlanta Center
10:16AM 35.5678 -80.9111 56° Northeast 420 483 31,000  Level Atlanta Center
10:17AM 35.6294 -80.7914 58° Northeast 420 483 31,000  Level Atlanta Center
10:18AM 35.6928 -80.6661 58° Northeast 425 489 31,000  Level Atlanta Center
10:19AM 35.7561 -80.5433 58° Northeast 425 489 31,000  Level Atlanta Center
10:21AM 35.8753 -80.3111 58° Northeast 447 514 31,000  Level Washington Center
10:22AM 35.9364 -80.1867 59° Northeast 435 501 31,000  Level Washington Center
10:23AM 35.9947 -80.0797 56° Northeast 430 495 31,000  Level Washington Center
10:24AM 36.0619 -79.9550 56° Northeast 425 489 31,000  Level Washington Center
10:25AM 36.1289 -79.8328 56° Northeast 425 489 31,000  Level Washington Center
10:26AM 36.1978 -79.7103 55° Northeast 430 495 31,000  Level Washington Center
10:27AM 36.2733 -79.5750 55° Northeast 430 495 31,000  Level Washington Center
10:28AM 36.3356 -79.4647 55° Northeast 430 495 31,000  Level Washington Center
10:29AM 36.4106 -79.3317 55° Northeast 435 501 31,000 -397 Level Washington Center
10:30AM 36.4814 -79.2058 55° Northeast 435 501 30,200 -1,190 Descending Washington Center
10:31AM 36.5494 -79.0903 54° Northeast 441 507 28,600 -1,686 Descending Washington Center
10:32AM 36.6242 -78.9539 56° Northeast 461 531 26,800 -1,729 Descending Washington Center
10:33AM 36.6947 -78.8169 57° Northeast 461 531 25,200 -908 Descending Washington Center
10:34AM 36.7692 -78.6903 54° Northeast 461 531 25,000 -99 Descending Washington Center
10:35AM 36.8478 -78.5431 56° Northeast 461 531 25,000  Level Washington Center
10:36AM 36.9089 -78.4311 56° Northeast 456 525 25,000 -248 Level Washington Center
10:37AM 36.9917 -78.2883 54° Northeast 456 525 24,500 -1,000 Descending Washington Center
10:38AM 37.0872 -78.2136 32° Northeast 438 504 23,000 -1,271 Descending Washington Center
10:39AM 37.1850 -78.1283 35° Northeast 438 504 22,000 -504 Descending Washington Center
10:40AM 37.2828 -78.0428 35° Northeast 428 493 22,000  Level Washington Center
10:41AM 37.3844 -77.9572 34° Northeast 433 498 22,000  Level Washington Center
10:42AM 37.4842 -77.8661 36° Northeast 433 498 22,000 -298 Level Washington Center
10:43AM 37.5900 -77.7933 29° Northeast 433 498 21,400 -1,220 Descending Washington Center
10:44AM 37.6953 -77.7308 25° Northeast 422 486 19,600 -1,966 Descending Washington Center
10:45AM 37.8006 -77.6733 23° Northeast 407 468 17,500 -2,100 Descending Washington Center
10:46AM 37.8975 -77.6156 25° Northeast 396 456 15,400 -2,200 Descending Washington Center
10:47AM 37.9881 -77.5600 26° Northeast 377 434 13,100 -2,430 Descending Washington Center
10:48AM 38.0869 -77.5069 23° Northeast 352 405 10,500 -1,587 Descending Washington Center
10:49AM 38.1628 -77.4614 25° Northeast 325 374 9,900 -248 Descending Washington Center
10:50AM 38.2281 -77.4208 26° Northeast 287 330 10,000 -153 Climbing Washington Center
10:51AM 38.2933 -77.3828 25° Northeast 262 302 9,600 -1,059 Descending Washington Center
10:52AM 38.3603 -77.3606 15° North 256 295 7,900 -1,574 Descending Washington Center
10:53AM 38.4289 -77.3753 350° North 241 277 6,400 -1,664 Descending Washington Center
10:54AM 38.4914 -77.3903 349° North 236 272 4,600 -1,271 Descending Washington Center
10:55AM 38.5578 -77.4050 350° North 236 272 3,900 -298 Descending Washington Center
10:56AM 38.6203 -77.4197 350° North 236 272 4,000 64 Climbing Washington Center
10:57AM 38.6500 -77.4167 North 196 226 4,000 -485 Level Potomac TRACON
10:58AM 38.7000 -77.4333 345° North 182 209 3,200 -472 Descending Potomac TRACON
10:59AM 38.7500 -77.4333 360° North 162 186 3,000 -104 Descending Potomac TRACON
11:00AM 38.8000 -77.4333 360° North 144 166 3,000  Level Potomac TRACON